Погода в Таврово-6

Россия / Белгородская область     50°30′13″N   36°32′51″E
темп.,
°C
ветер,
м/с
пор.,
м/с
влажн.,
%
обл.,
%
осадки,
мм/ч
давл.,
гПа
погр.,
м
15 июня, вт
вт1500:00+17св22895 0.0 101420
03:00+16св22914 0.0 101324
06:00+17св259140 0.0 1013114
09:00+22св348021 0.9 1013305
12:00+24св456496 0.4 10121195
15:00+25св446694 0.8 10111183
18:00+24ссв247313 1.5 1010911
21:00+19св228537 2.1 101113
16 июня, ср
ср1600:00+17ссв2292100 4.3 101020
03:00+17св129390 5.3 101017
06:00+18св2392100 0.0 101186
09:00+21всв2382100 0.1 1012385
12:00+25всв226724 0.3 10121036
15:00+25в226478 2.1 10121154
18:00+24всв237688 1.5 1012664
21:00+19св46890 2.0 101490
17 июня, чт
чт1700:00+18св4109524 0.0 1014210
03:00+17св4109615 0.0 1015231
06:00+18св5129524 0.0 1016392
09:00+21всв711815 0.0 1017683
12:00+24всв787156 0.0 10181338
15:00+22св61078100 0.1 1018717
18:00+22всв51180100 0.1 1019489
21:00+19св512820 0.1 1021352
18 июня, пт
пт1800:00+17всв513860 0.0 1022482
03:00+15всв514820 0.0 1023371
06:00+15всв513850 0.0 1024376
09:00+19всв710730 0.0 1024621
12:00+22в78640 0.0 10241088
15:00+23в78620 0.0 10241413
18:00+21в58711 0.0 10241034
21:00+17всв49880 0.0 1025167
19 июня, сб
сб1900:00+15всв411920 0.0 1026221
03:00+14всв39920 0.0 1026160
06:00+15в410892 0.0 1026238
09:00+20в69700 0.0 1027566
12:00+22вюв68610 0.0 10261235
15:00+23в66601 0.0 10251263
18:00+22в57690 0.0 1024913
21:00+17всв36854 0.0 102494